Content
SEND FEEDBACK

Daily
Averages
Monthly
Summary
United States of America

ST. LOUIS - SAINT LOUIS UNIVERSITY, MISSOURI


Home > North America > United States > Missouri
Elevation: 580 feet     Latitude: 38 38N     Longitude: 090 14W

WEATHER
 
SELECT A DAY
Number of Records: 186,236;   Date Range: 1/1/95 - 8/28/14
 
SHARE

PRINT THIS DATA

[ ← Previous Day ]
WEATHER ALMANAC - MAY 18, 2013
[ Next Day → ]
[ °C ]   °F
Weather ElementAverageHighLow
Temperature68.8 °F82 °F (3:53 pm)60.1 °F (4:53 am)
Dewpoint61.8 °F64 °F (8:53 am)57.9 °F (4:53 am)
Humidity80.7 %100 % (4:00 am)51 % (3:53 pm)
Barometer29.96 in30.01 in (8:53 am)29.88 in (10:53 pm)
Wind Speed3.3 mph11.5 mph (10:53 pm)
Weather ElementAverage
Visibility6.1 mi
Wind DirectionENE (71.4 °)

Weather ElementTotal
Precipitation---
Cooling Degree Days6.1 (Base 65)
Growing Degree Days21.1 (Base 50)
Averaged from 36 records on May 18, 2013
WEATHER CONDITIONS BREAKOUT
WIND DIRECTION BREAKOUT
WEATHER BY HOUR - MAY 18, 2013
[ °C ]   °F
Local TimeTemperatureDewpointHumidityBarometerVisibilityWind DirectionWind SpeedGust SpeedPrecipitationEventsConditions
1:53 AM64.9 °F62.1 °F90 %29.97 in7.0 miCalmClear
2:53 AM63.0 °F62.1 °F97 %29.96 in5.0 miCalmScattered Clouds
3:20 AM62.6 °F60.8 °F94 %29.97 in2.0 miESE (120°)3.5 mphPartly Cloudy
3:35 AM62.6 °F60.8 °F94 %29.97 in3.0 miCalmClear
3:44 AM60.8 °F59.0 °F94 %29.97 in1.5 miCalmClear
3:53 AM61.0 °F60.1 °F97 %29.96 in0.8 miCalmClear
4:00 AM60.8 °F60.8 °F100 %29.97 in2.0 miCalmClear
4:08 AM62.6 °F60.8 °F94 %29.97 in4.0 miCalmPartly Cloudy
4:20 AM60.8 °F60.8 °F100 %29.97 in2.5 miESE (110°)3.5 mphClear
4:29 AM62.6 °F60.8 °F94 %29.97 in3.0 miCalmClear
4:41 AM60.8 °F60.8 °F100 %29.97 in1.5 miCalmClear
4:45 AM60.8 °F59.0 °F94 %29.97 in0.5 miCalmFogFog
4:53 AM60.1 °F57.9 °F93 %29.96 in0.5 miCalmFogFog
4:57 AM60.8 °F59.0 °F94 %29.97 in2.0 miEast (80°)3.5 mphPartly Cloudy
5:02 AM60.8 °F59.0 °F94 %29.97 in2.5 miCalmMostly Cloudy
5:20 AM62.6 °F60.8 °F94 %29.97 in3.0 miCalmOvercast
5:53 AM64.0 °F62.1 °F93 %29.97 in5.0 miCalmOvercast
6:53 AM66.0 °F63.0 °F90 %29.99 in5.0 miCalmOvercast
7:24 AM66.2 °F62.6 °F88 %30.00 in5.0 miCalmOvercast
7:53 AM66.9 °F63.0 °F87 %30.00 in8.0 miSouth (170°)4.6 mphOvercast
8:53 AM69.1 °F64.0 °F84 %30.01 in8.0 miSSW (210°)3.5 mphOvercast
9:53 AM71.1 °F64.0 °F78 %30.01 in8.0 miCalmMostly Cloudy
10:53 AM75.0 °F64.0 °F69 %30.00 in9.0 miESE (110°)6.9 mphOvercast
11:53 AM77.0 °F63.0 °F62 %29.99 in10.0 miSE (140°)8.1 mphScattered Clouds
12:53 PM78.1 °F63.0 °F60 %29.97 in10.0 miSouth (180°)4.6 mphOvercast
1:53 PM79.0 °F62.1 °F56 %29.95 in10.0 miSE (130°)4.6 mphMostly Cloudy
2:53 PM80.1 °F63.0 °F56 %29.94 in10.0 miSSE (160°)8.1 mphMostly Cloudy
3:53 PM82.0 °F62.1 °F51 %29.93 in10.0 miSSE (150°)6.9 mphScattered Clouds
4:53 PM82.0 °F62.1 °F51 %29.92 in10.0 miESE (110°)6.9 mphScattered Clouds
5:53 PM82.0 °F62.1 °F51 %29.91 in10.0 miESE (120°)5.8 mphScattered Clouds
6:53 PM80.1 °F63.0 °F56 %29.90 in10.0 miESE (120°)8.1 mphScattered Clouds
7:53 PM77.0 °F63.0 °F62 %29.90 in10.0 miSE (130°)5.8 mphClear
8:53 PM75.0 °F64.0 °F69 %29.90 in10.0 miSE (130°)5.8 mphPartly Cloudy
9:53 PM73.9 °F64.0 °F71 %29.90 in10.0 miSE (130°)9.2 mphMostly Cloudy
10:53 PM72.0 °F63.0 °F73 %29.88 in10.0 miESE (120°)11.5 mphClear
11:53 PM71.1 °F63.0 °F75 %29.90 in10.0 miSSE (150°)6.9 mphClear
Hourly data recorded from KCPS, located miles away from St. Louis - Saint Louis University, Missouri







STORIES FROM OUR PARTNERS